Satellite: FO-70
Catalog number: 37380
Epoch time:      11348.43322615
Element set:    0053
Inclination:      071.9733 deg
RA of node:       002.1098 deg
Eccentricity:    0.0019099
Arg of perigee:   299.9958 deg
Mean anomaly:     059.9308 deg
Mean motion:   14.76604111 rev/day
Decay rate:      1.135e-05 rev/day^2
Epoch rev:           00856
Checksum:              311

/EX
SB KEPS @ AMSAT  $ORB11349.W
Orbital Elements  11349.WEATHER

HR AMSAT ORBITAL ELEMENTS FOR WEATHER SATELLITES
FROM WA5QGD FORT WORTH,TX December 15, 2011
Send Subscribe/unsubscribe to KEPS at http://www.amsat.org/mailman/listinfo/kep
BID: ORB11349.W
TO ALL RADIO AMATEURS BT

Satellite: NOAA-10
Catalog number: 16969
Epoch time:      11348.70019500
Element set:    0744
Inclination:      098.6016 deg
RA of node:       015.8730 deg
Eccentricity:    0.0013151
Arg of perigee:   059.5493 deg
Mean anomaly:     300.6974 deg
Mean motion:   14.27511857 rev/day
Decay rate:       1.65e-06 rev/day^2
Epoch rev:           31340
Checksum:              289

Satellite: NOAA-11
Catalog number: 19531
Epoch time:      11348.80569322
Element set:    0744
Inclination:      098.7454 deg
RA of node:       072.7881 deg
Eccentricity:    0.0011781
Arg of perigee:   036.1529 deg
Mean anomaly:     324.0453 deg
Mean motion:   14.14944654 rev/day
Decay rate:        8.2e-07 rev/day^2
Epoch rev:           19829
Checksum:              315

Satellite: NOAA-12
Catalog number: 21263
Epoch time:      11348.95272753
Element set:    0248
Inclination:      098.7417 deg
RA of node:       006.3694 deg
Eccentricity:    0.0014380
Arg of perigee:   022.4389 deg
Mean anomaly:     337.7417 deg
Mean motion:   14.25464798 rev/day
Decay rate:       1.49e-06 rev/day^2
Epoch rev:           07016
Checksum:              316

Satellite: MET-3/5
Catalog number: 21655
Epoch time:      11348.93877031
Element set:    0287
Inclination:      082.5603 deg
RA of node:       283.0575 deg
Eccentricity:    0.0014855
Arg of perigee:   066.0796 deg
Mean anomaly:     294.1907 deg
Mean motion:   13.17035731 rev/day
Decay rate:        5.1e-07 rev/day^2
Epoch rev:           97751
Checksum:              319

Satellite: MET-2/21
Catalog number: 22782
Epoch time:      11349.61643298
Element set:     283
Inclination:      082.5450 deg
RA of node:       178.9407 deg
Eccentricity:    0.0021550
Arg of perigee:   313.1365 deg
Mean anomaly:     046.7988 deg
Mean motion:   13.83670889 rev/day
Decay rate:        1.6e-07 rev/day^2
Epoch rev:           92364
Checksum:              328

Satellite: OKEAN-4
Catalog number: 23317
Epoch time:      11348.96622078
Element set:    0784
Inclination:      082.5407 deg
RA of node:       204.2997 deg
Eccentricity:    0.0019961
Arg of perigee:   242.0544 deg
Mean anomaly:     117.8653 deg
Mean motion:   14.83458286 rev/day
Decay rate:      1.471e-05 rev/day^2
Epoch rev:           92734
Checksum:              329

Satellite: NOAA-14
Catalog number: 23455
Epoch time:      11348.92136703
Element set:    0733
Inclination:      098.8414 deg
RA of node:       069.6625 deg
Eccentricity:    0.0009941
Arg of perigee:   123.0888 deg
Mean anomaly:     237.1240 deg
Mean motion:   14.13863040 rev/day
Decay rate:       1.60e-06 rev/day^2
Epoch rev:           87461
Checksum:              298

Satellite: NOAA-15
Catalog number: 25338
Epoch time:      11348.62387640
Element set:    0063
Inclination:      098.6734 deg
RA of node:       332.4691 deg
Eccentricity:    0.0009843
Arg of perigee:   290.8524 deg
Mean anomaly:     069.1586 deg
Mean motion:   14.25006025 rev/day
Decay rate:       3.90e-06 rev/day^2
Epoch rev:           70642
Checksum:              309

Satellite: RESURS
Catalog number: 25394
Epoch time:      11348.93844594
Element set:    0985
Inclination:      098.3068 deg
RA of node:       342.0753 deg
Eccentricity:    0.0002355
Arg of perigee:   063.8934 deg
Mean anomaly:     296.2488 deg
Mean motion:   14.24263735 rev/day
Decay rate:       1.28e-06 rev/day^2
Epoch rev:           69803
Checksum:              336

Satellite: FENGYUN1
Catalog number: 25730
Epoch time:      11348.91689558
Element set:     492
Inclination:      098.8306 deg
RA of node:       306.3196 deg
Eccentricity:    0.0020982
Arg of perigee:   171.2379 deg
Mean anomaly:     188.9153 deg
Mean motion:   14.09119100 rev/day
Decay rate:       8.28e-06 rev/day^2
Epoch rev:           64851
Checksum:              326

Satellite: OKEAN-0
Catalog number: 25860
Epoch time:      11349.83548393
Element set:     492
Inclination:      097.9100 deg
RA of node:       311.5599 deg
Eccentricity:    0.0001732
Arg of perigee:   086.6405 deg
Mean anomaly:     273.4999 deg
Mean motion:   14.74016228 rev/day
Decay rate:      1.014e-05 rev/day^2
Epoch rev:           66741
Checksum:              315

Satellite: NOAA-16
Catalog number: 26536
Epoch time:      11348.61791251
Element set:    0545
Inclination:      099.1206 deg
RA of node:       022.6515 deg
Eccentricity:    0.0009750
Arg of perigee:   244.4830 deg
Mean anomaly:     115.5335 deg
Mean motion:   14.12683594 rev/day
Decay rate:       -6.8e-07 rev/day^2
Epoch rev:           57883
Checksum:              309

